Date String (YYYY-MM-DD hh:mm:ss) UTC,Instrument flags,absolute air pressure of the measurement (hPa),sample flow rate (lpm),inlet stack bypass flow (lpm),air temperature of the measurement (°C),ambient temperature measured by the external sensor (°C),aerosol sample conditioner tube jacket temperature (°C),OPC LED temperature (°C),internal box temperature (°C),relative humidity of the measurement (%),span deviation,mass concentration of particles derived from Lorenz-Mie calculation of OPC scattering (μg/m³),mass concentration of particles derived from Lorenz-Mie calculation of OPC scattering (μg/m³),mass concentration of particles derived from Lorenz-Mie calculation of OPC scattering (μg/m³)
DateTimeUTC,F1_M11,P_M11,Q1_M11,Q2_M11,T1_M11,T2_M11,T3_M11,T4_M11,T5_M11,U1_M11,ZSPAN_M11,X0_M11,X2_M11,X1_M11
2023-07-04 05:00:00,SystemResetWarning,0831.9,4.99,000.00,029.3,026.3,000.0,037.6,030.8,22.7,0000.0,0009.77,0004.37,0003.95
2023-07-04 05:01:00,SystemResetWarning,0831.9,5.01,000.00,029.2,025.4,000.0,037.5,030.7,22.9,0000.0,0009.82,0004.41,0003.97
2023-07-04 05:02:00,SystemResetWarning,0831.9,5.01,000.00,029.2,025.5,000.0,037.5,030.5,23.3,0000.0,0009.48,0004.42,0003.98
2023-07-04 05:03:00,SystemResetWarning,0831.9,5.00,000.00,029.1,025.8,000.0,037.6,030.4,23.5,0000.0,0009.13,0004.44,0003.99
2023-07-04 05:04:00,SystemResetWarning,0831.9,4.99,000.00,029.1,026.2,000.0,037.6,030.5,23.6,0000.0,0008.91,0004.44,0004.01
2023-07-04 05:05:00,SystemResetWarning,0831.9,5.01,000.00,029.1,026.6,000.0,037.6,030.6,23.6,0000.0,0009.16,0004.49,0004.03
2023-07-04 05:06:00,SystemResetWarning,0831.8,5.01,000.00,029.1,026.9,000.0,037.6,030.7,23.5,0000.0,0009.42,0004.60,0004.06
2023-07-04 05:07:00,SystemResetWarning,0831.8,5.00,000.00,029.1,027.2,000.0,037.6,030.7,23.3,0000.0,0009.39,0004.63,0004.08
2023-07-04 05:08:00,SystemResetWarning,0832.3,4.99,000.00,029.1,027.4,000.0,037.6,030.8,23.2,0000.0,0009.59,0004.66,0004.10
2023-07-04 05:09:00,SystemResetWarning,0832.2,5.00,000.00,029.2,027.6,000.0,037.7,030.8,22.9,0000.0,0008.82,0004.67,0004.12
2023-07-04 05:10:00,SystemResetWarning,0831.9,5.01,000.00,029.2,027.8,000.0,037.7,030.9,22.6,0000.0,0008.94,0004.73,0004.14
2023-07-04 05:11:00,SystemResetWarning,0832.2,4.99,000.00,029.2,027.9,000.0,037.7,030.9,22.6,0000.0,0008.74,0004.74,0004.16
2023-07-04 05:12:00,SystemResetWarning,0832.1,5.01,000.00,029.3,028.1,000.0,037.7,031.0,22.6,0000.0,0008.64,0004.72,0004.17
2023-07-04 05:13:00,SystemResetWarning,0831.8,5.00,000.00,029.3,028.2,000.0,037.7,031.0,22.5,0000.0,0008.59,0004.72,0004.19
2023-07-04 05:14:00,SystemResetWarning,0831.9,4.98,000.00,029.3,028.0,000.0,037.7,031.0,22.4,0000.0,0008.60,0004.71,0004.20
2023-07-04 05:15:00,SystemResetWarning,0831.7,5.00,000.00,029.3,026.2,000.0,037.6,030.8,22.4,0000.0,0008.51,0004.69,0004.19
2023-07-04 05:16:00,SystemResetWarning,0831.8,5.01,000.00,029.2,025.4,000.0,037.5,030.6,22.3,0000.0,0008.10,0004.66,0004.20
2023-07-04 05:17:00,SystemResetWarning,0831.7,5.01,000.00,029.2,025.5,000.0,037.5,030.5,22.5,0000.0,0007.88,0004.56,0004.18
2023-07-04 05:18:00,SystemResetWarning,0831.7,4.99,000.00,029.1,025.9,000.0,037.6,030.4,22.5,0000.0,0008.05,0004.57,0004.18
2023-07-04 05:19:00,SystemResetWarning,0831.7,5.00,000.00,029.1,026.3,000.0,037.6,030.5,22.5,0000.0,0007.85,0004.57,0004.19
2023-07-04 05:20:00,SystemResetWarning,0831.7,5.00,000.00,029.1,026.6,000.0,037.6,030.6,22.5,0000.0,0007.94,0004.60,0004.19
2023-07-04 05:21:00,SystemResetWarning,0831.6,4.99,000.00,029.1,026.9,000.0,037.6,030.7,22.5,0000.0,0007.99,0004.60,0004.19
2023-07-04 05:22:00,SystemResetWarning,0831.6,4.99,000.00,029.1,027.2,000.0,037.6,030.7,22.4,0000.0,0008.47,0004.63,0004.20
2023-07-04 05:23:00,SystemResetWarning,0831.6,5.02,000.00,029.1,027.5,000.0,037.7,030.8,22.5,0000.0,0009.33,0004.72,0004.23
2023-07-04 05:24:00,SystemResetWarning,0831.6,5.00,000.00,029.2,027.6,000.0,037.7,030.8,22.4,0000.0,0009.49,0004.75,0004.23
2023-07-04 05:25:00,SystemResetWarning,0831.6,4.98,000.00,029.2,027.8,000.0,037.7,030.9,22.3,0000.0,0009.49,0004.76,0004.24
2023-07-04 05:26:00,SystemResetWarning,0831.5,5.00,000.00,029.2,027.9,000.0,037.7,030.9,22.3,0000.0,0009.87,0004.77,0004.25
2023-07-04 05:27:00,SystemResetWarning,0831.5,5.02,000.00,029.3,028.1,000.0,037.7,031.0,22.2,0000.0,0011.12,0004.80,0004.26
2023-07-04 05:28:00,SystemResetWarning,0831.5,5.00,000.00,029.3,028.2,000.0,037.8,031.0,22.2,0000.0,0011.68,0004.87,0004.28
2023-07-04 05:29:00,SystemResetWarning,0831.5,4.98,000.00,029.3,027.9,000.0,037.7,031.0,22.2,0000.0,0011.65,0004.90,0004.29
2023-07-04 05:30:00,SystemResetWarning,0831.5,5.00,000.00,029.3,026.1,000.0,037.6,030.8,22.2,0000.0,0011.80,0004.93,0004.29
2023-07-04 05:31:00,SystemResetWarning,0831.6,5.01,000.00,029.3,025.4,000.0,037.5,030.7,22.2,0000.0,0011.76,0004.92,0004.30
2023-07-04 05:32:00,SystemResetWarning,0831.6,5.01,000.00,029.2,025.6,000.0,037.5,030.5,22.4,0000.0,0011.70,0004.93,0004.30
2023-07-04 05:33:00,SystemResetWarning,0831.6,5.00,000.00,029.1,025.9,000.0,037.6,030.5,22.4,0000.0,0012.21,0004.91,0004.30
2023-07-04 05:34:00,SystemResetWarning,0831.6,5.00,000.00,029.1,026.3,000.0,037.6,030.5,22.5,0000.0,0011.51,0004.84,0004.28
2023-07-04 05:35:00,SystemResetWarning,0831.6,4.99,000.00,029.1,026.6,000.0,037.6,030.6,22.5,0000.0,0011.41,0004.83,0004.29
2023-07-04 05:36:00,SystemResetWarning,0831.6,4.99,000.00,029.1,026.9,000.0,037.6,030.7,22.5,0000.0,0011.52,0004.86,0004.29
2023-07-04 05:37:00,SystemResetWarning,0831.6,5.01,000.00,029.1,027.2,000.0,037.6,030.7,22.5,0000.0,0011.46,0004.90,0004.31
2023-07-04 05:38:00,SystemResetWarning,0831.7,5.01,000.00,029.1,027.4,000.0,037.7,030.8,22.5,0000.0,0010.16,0004.91,0004.32
2023-07-04 05:39:00,SystemResetWarning,0831.6,4.98,000.00,029.2,027.6,000.0,037.7,030.8,22.5,0000.0,0009.85,0004.89,0004.32
2023-07-04 05:40:00,SystemResetWarning,0831.6,5.00,000.00,029.2,027.8,000.0,037.7,030.9,22.6,0000.0,0011.24,0004.88,0004.33
2023-07-04 05:41:00,SystemResetWarning,0831.6,5.01,000.00,029.2,027.9,000.0,037.7,030.9,22.6,0000.0,0011.38,0004.84,0004.33
2023-07-04 05:42:00,SystemResetWarning,0831.6,5.01,000.00,029.3,028.0,000.0,037.7,030.9,22.6,0000.0,0012.26,0004.83,0004.33
2023-07-04 05:43:00,SystemResetWarning,0831.6,5.00,000.00,029.3,028.1,000.0,037.7,031.0,22.7,0000.0,0012.43,0004.83,0004.33
2023-07-04 05:44:00,SystemResetWarning,0831.6,4.99,000.00,029.3,028.2,000.0,037.8,031.0,22.7,0000.0,0011.65,0004.78,0004.31
2023-07-04 05:45:00,SystemResetWarning,0831.5,4.99,000.00,029.4,027.9,000.0,037.8,031.0,22.6,0000.0,0011.23,0004.78,0004.31
2023-07-04 05:46:00,SystemResetWarning,0831.5,5.00,000.00,029.3,026.0,000.0,037.6,030.8,22.7,0000.0,0011.18,0004.77,0004.30
2023-07-04 05:47:00,SystemResetWarning,0831.5,5.00,000.00,029.3,025.3,000.0,037.5,030.7,22.7,0000.0,0011.03,0004.74,0004.29
2023-07-04 05:48:00,SystemResetWarning,0831.4,5.00,000.00,029.2,025.4,000.0,037.6,030.4,22.8,0000.0,0010.92,0004.70,0004.26
2023-07-04 05:49:00,SystemResetWarning,0831.5,5.02,000.00,029.1,025.8,000.0,037.6,030.4,22.9,0000.0,0010.91,0004.69,0004.25
2023-07-04 05:50:00,SystemResetWarning,0831.5,5.00,000.00,029.1,026.2,000.0,037.6,030.5,22.9,0000.0,0010.93,0004.68,0004.24
2023-07-04 05:51:00,SystemResetWarning,0831.5,4.99,000.00,029.1,026.5,000.0,037.6,030.5,22.9,0000.0,0009.73,0004.65,0004.22
2023-07-04 05:52:00,SystemResetWarning,0831.5,4.99,000.00,029.1,026.8,000.0,037.6,030.6,22.9,0000.0,0009.12,0004.64,0004.21
2023-07-04 05:53:00,SystemResetWarning,0831.6,5.00,000.00,029.1,027.1,000.0,037.6,030.7,22.9,0000.0,0008.32,0004.62,0004.20
2023-07-04 05:54:00,SystemResetWarning,0831.6,5.00,000.00,029.1,027.3,000.0,037.7,030.7,23.0,0000.0,0007.84,0004.62,0004.19
2023-07-04 05:55:00,SystemResetWarning,0831.6,5.00,000.00,029.1,027.5,000.0,037.7,030.8,22.8,0000.0,0007.88,0004.64,0004.19
2023-07-04 05:56:00,SystemResetWarning,0831.6,4.98,000.00,029.2,027.7,000.0,037.7,030.8,23.0,0000.0,0007.87,0004.65,0004.18
2023-07-04 05:57:00,SystemResetWarning,0831.6,5.00,000.00,029.2,027.8,000.0,037.7,030.9,23.0,0000.0,0007.93,0004.66,0004.18
2023-07-04 05:58:00,SystemResetWarning,0831.8,5.00,000.00,029.2,028.0,000.0,037.7,030.9,22.9,0000.0,0008.29,0004.64,0004.16
2023-07-04 05:59:00,SystemResetWarning,0831.7,5.01,000.00,029.3,028.1,000.0,037.7,031.0,23.1,0000.0,0008.59,0004.67,0004.16
